[[{"header":{"parameterUnit":"m.s-1","parameterCategory":2,"la1":30.2991,"la2":30.254,"lo1":-89.0895,"lo2":-89.0444,"dy":0.0017,"dx":0.0017,"nx":28,"ny":28,"refTime":"2024-08-25T09:00:00:Z","depth":"0","parameterNumber":2,"parameterNumberName":"U-component_of_CURRENTS"},"data":[0,0,0,0,0,0,0,0,0,0,0,0,0,0,0,0,0,0,0,0,0,0,0,0,0,0,0,0,0,0,0,0,0,0,0,0,0,0,0,0,0,0,0,0,0,0,0,0,0,0,0,0,0,0,0,0,0,0,0.1507,0.1507,0,0.1537,0.1537,0.1537,0.1533,0.1533,0.1533,0.1532,0.153,0.1531,0.1531,0,0,0,0,0,0,0,0,0,0,0,0,0,0.1432,0.1434,0.1506,0.1507,0.1508,0.1537,0.1537,0.1537,0.1533,0.1533,0.1533,0.1532,0.153,0.1531,0.1531,0,0,0,0,0,0,0,0,0,0,0,0,0,0.1461,0.1434,0.1506,0.1511,0.1512,0.1537,0.1537,0.1537,0.1533,0.1533,0.1533,0.1532,0.153,0.1531,0.1531,0.154,0,0,0.1532,0.1532,0,0,0,0,0,0,0,0,0.146,0.1464,0.151,0.1511,0.1512,0.1533,0.151,0.1537,0.1533,0.1523,0.1532,0.1532,0.153,0.1531,0.1534,0.154,0.154,0.1532,0.1532,0.1532,0.1532,0,0,0,0,0,0,0,0.1458,0.1462,0.1516,0.1511,0.1512,0.1508,0.1511,0.1515,0.1526,0.1523,0.1524,0.1531,0.153,0.1534,0.1534,0.154,0.1532,0.1532,0.1532,0.1532,0.1581,0.1582,0,0,0,0,0,0,0.1461,0.1461,0.1515,0.1517,0.1487,0.1509,0.1513,0.1525,0.1526,0.1527,0.1532,0.1531,0.1533,0.1533,0.1534,0.1566,0.1532,0.1532,0.1532,0.1579,0.1581,0.1582,0,0,0,0,0,0,0.1459,0.1465,0.1514,0.1491,0.1497,0.1511,0.1524,0.1525,0.1532,0.1533,0.1533,0.1537,0.1533,0.1533,0.1549,0.1565,0.1532,0.1533,0.1578,0.158,0.1581,0.1618,0,0,0,0,0,0,0.1457,0.1465,0.1471,0.1492,0.1499,0.1533,0.1525,0.1526,0.1538,0.1538,0.1538,0.1537,0.1533,0.1549,0.1549,0.1565,0.1533,0.1577,0.1579,0.1581,0.1615,0.1621,0.1625,0,0,0,0,0,0.1454,0.1465,0.1471,0.1478,0.1508,0.1534,0.1537,0.1544,0.1539,0.1546,0.1551,0.1537,0.1562,0.155,0.1551,0.1567,0.1576,0.1578,0.1581,0.1613,0.1619,0.1625,0,0,0,0,0,0,0.144,0.1467,0.1474,0.1494,0.1515,0.1535,0.1543,0.1548,0.1557,0.1555,0.1551,0.1552,0.1571,0.1567,0.1553,0.1588,0.1567,0.157,0.1592,0.1598,0.1602,0.16,0.1533,0,0,0,0,0,0.1441,0.1454,0.1482,0.1499,0.1511,0.1527,0.1537,0.1545,0.1558,0.1561,0.1565,0.1571,0.1582,0.1588,0.1594,0.1613,0.1617,0.1625,0.163,0.1634,0.1633,0.1655,0.1662,0.159,0.159,0.159,0,0,0.1441,0.1457,0.1466,0.1496,0.1512,0.1537,0.1532,0.1553,0.1572,0.156,0.1583,0.1587,0.1591,0.1614,0.1622,0.1612,0.166,0.1637,0.164,0.1638,0.1658,0.1665,0.1671,0.1592,0.1592,0.1591,0,0,0.1451,0.1464,0.148,0.15,0.1528,0.1543,0.1551,0.1576,0.1584,0.1609,0.1608,0.1623,0.1638,0.1649,0.1654,0.1691,0.1684,0.1693,0.1717,0.1739,0.1745,0.175,0.1778,0.1785,0.1697,0.1697,0.1697,0,0.1452,0.1476,0.1489,0.1512,0.1532,0.1548,0.1574,0.1589,0.1616,0.163,0.1621,0.1656,0.1655,0.1689,0.1701,0.1701,0.1714,0.1693,0.1745,0.175,0.1754,0.1782,0.1789,0.1699,0.1699,0.1699,0.1699,0,0.1476,0.1496,0.1509,0.1544,0.1566,0.1591,0.1619,0.164,0.1651,0.1667,0.1699,0.1704,0.1725,0.173,0.1724,0.1762,0.1761,0.1747,0.1728,0.1764,0.1791,0.1798,0.1702,0.1702,0.1701,0.17,0,0,0.1484,0.1518,0.1524,0.1542,0.1584,0.1606,0.1644,0.1684,0.1709,0.1729,0.176,0.178,0.178,0.1787,0.1787,0.1801,0.1846,0.1789,0.1789,0.1813,0.1903,0.1978,0.1993,0.1841,0.1842,0.1843,0.1914,0,0.1503,0.1539,0.1557,0.1599,0.1624,0.1652,0.1686,0.1721,0.1748,0.178,0.1792,0.1818,0.1804,0.1815,0.183,0.1841,0.1864,0.1828,0.1867,0.1869,0.1927,0.2003,0.1939,0.2003,0.1921,0.1922,0.1923,0,0.1526,0.1547,0.1584,0.1626,0.1641,0.1665,0.1722,0.1754,0.1803,0.1825,0.1856,0.1864,0.1899,0.1871,0.1918,0.1898,0.1905,0.1908,0.1911,0.197,0.1957,0.1952,0.2019,0.1958,0.1934,0.1933,0.1932,0,0.1524,0.1569,0.1594,0.161,0.166,0.168,0.1709,0.1763,0.18,0.1851,0.1882,0.192,0.1946,0.1958,0.1985,0.195,0.2037,0.1988,0.2065,0.207,0.2018,0.2018,0.2026,0.2022,0.2021,0.2021,0.2021,0,0.1538,0.1561,0.1589,0.1603,0.1641,0.1674,0.1722,0.176,0.1817,0.1871,0.1897,0.1959,0.1968,0.202,0.2017,0.2094,0.2073,0.2094,0.2104,0.2033,0.2034,0.198,0.1947,0.2024,0.2023,0.2023,0.2022,0,0.1533,0.1552,0.1582,0.1622,0.1638,0.1661,0.1728,0.1759,0.1819,0.189,0.191,0.2,0.2091,0.2116,0.2161,0.216,0.2156,0.2228,0.2159,0.2162,0.2173,0.2145,0.2116,0.2045,0.2317,0.232,0.2322,0,0.1529,0.1541,0.1584,0.1598,0.1613,0.1655,0.1683,0.1752,0.1792,0.1932,0.1961,0.2084,0.2168,0.2288,0.2332,0.2378,0.226,0.233,0.2255,0.2198,0.2173,0.2068,0.1999,0.2193,0.2194,0.2194,0.2195,0,0.1518,0.153,0.1548,0.1578,0.1602,0.1644,0.1688,0.1722,0.1815,0.1889,0.2013,0.2096,0.2267,0.2325,0.242,0.2428,0.2232,0.235,0.2287,0.2096,0.1982,0.1909,0.2126,0.2201,0.22,0.22,0.2199,0.2199,0.1496,0.1503,0.1521,0.155,0.1578,0.1607,0.1621,0.1683,0.1755,0.1843,0.1989,0.2089,0.2239,0.2391,0.2401,0.2391,0.2336,0.2284,0.2262,0.2165,0.2079,0.2343,0.2441,0.2441,0.2442,0.2443,0.2443,0,0.1455,0.1469,0.1491,0.151,0.1517,0.1558,0.1602,0.1603,0.1657,0.1794,0.1896,0.2064,0.2155,0.2255,0.2358,0.229,0.2132,0.2201,0.1985,0.1924,0.2156,0.2134,0.2175,0.2175,0.2175,0.2175,0.2175,0.2175,0.1429,0.1428,0.1444,0.1438,0.1453,0.1439,0.145,0.1472,0.1547,0.1652,0.1759,0.1877,0.2101,0.2264,0.2257,0.2185,0.1967,0.1909,0.1868,0.1992,0.1994,0.1996,0.1966,0.1971,0.1971,0.1527,0.1524,0.1521]},{"header":{"parameterUnit":"m.s-1","parameterCategory":2,"la1":30.2991,"la2":30.254,"lo1":-89.0895,"lo2":-89.0444,"dy":0.0017,"dx":0.0017,"nx":28,"ny":28,"refTime":"2024-08-25T09:00:00:Z","depth":"0","parameterNumber":3,"parameterNumberName":"V-component_of_CURRENTS"},"data":[0,0,0,0,0,0,0,0,0,0,0,0,0,0,0,0,0,0,0,0,0,0,0,0,0,0,0,0,0,0,0,0,0,0,0,0,0,0,0,0,0,0,0,0,0,0,0,0,0,0,0,0,0,0,0,0,0,0,-0.0505,-0.0506,0,-0.0566,-0.0567,-0.0568,-0.0602,-0.0602,-0.0602,-0.0602,-0.0673,-0.0675,-0.0677,0,0,0,0,0,0,0,0,0,0,0,0,0,-0.0443,-0.0444,-0.0505,-0.0506,-0.0507,-0.0566,-0.0567,-0.0568,-0.0601,-0.0602,-0.0602,-0.0602,-0.0673,-0.0675,-0.0677,0,0,0,0,0,0,0,0,0,0,0,0,0,-0.0483,-0.0444,-0.0505,-0.0531,-0.0534,-0.0566,-0.0567,-0.0568,-0.0601,-0.0602,-0.0602,-0.0602,-0.0672,-0.0675,-0.0677,-0.069,0,0,-0.0686,-0.0687,0,0,0,0,0,0,0,0,-0.0481,-0.0485,-0.0526,-0.0529,-0.0533,-0.0577,-0.0571,-0.0609,-0.0601,-0.0576,-0.0602,-0.0602,-0.0642,-0.0647,-0.0658,-0.0694,-0.0697,-0.0686,-0.0687,-0.0689,-0.0689,0,0,0,0,0,0,0,-0.0478,-0.0483,-0.0529,-0.0527,-0.0531,-0.0548,-0.0554,-0.0579,-0.0607,-0.0578,-0.058,-0.0588,-0.0644,-0.0655,-0.066,-0.0698,-0.0686,-0.0688,-0.069,-0.0691,-0.0746,-0.0746,0,0,0,0,0,0,-0.0469,-0.048,-0.0527,-0.0531,-0.0507,-0.0549,-0.0555,-0.0562,-0.0607,-0.0614,-0.0587,-0.0589,-0.065,-0.0657,-0.0662,-0.0689,-0.0689,-0.0691,-0.0693,-0.0747,-0.0746,-0.0746,0,0,0,0,0,0,-0.0468,-0.0473,-0.0525,-0.0507,-0.0515,-0.055,-0.0557,-0.0563,-0.0575,-0.0614,-0.0621,-0.0593,-0.0651,-0.0659,-0.068,-0.0692,-0.0692,-0.0695,-0.0747,-0.0747,-0.0746,-0.0737,0,0,0,0,0,0,-0.0466,-0.0472,-0.0471,-0.0507,-0.0516,-0.0538,-0.0557,-0.0564,-0.0579,-0.0582,-0.0621,-0.0628,-0.0652,-0.0676,-0.0683,-0.0696,-0.0697,-0.0747,-0.0747,-0.0746,-0.0737,-0.0736,-0.0736,0,0,0,0,0,-0.0463,-0.0456,-0.047,-0.0476,-0.0514,-0.0538,-0.0543,-0.0569,-0.0579,-0.0581,-0.0607,-0.0627,-0.0679,-0.0678,-0.0686,-0.07,-0.0747,-0.0747,-0.0746,-0.0738,-0.0737,-0.0736,0,0,0,0,0,0,-0.0417,-0.046,-0.0476,-0.0479,-0.0506,-0.0543,-0.0543,-0.0566,-0.0588,-0.0587,-0.0626,-0.0635,-0.0658,-0.0675,-0.0672,-0.0713,-0.0716,-0.0718,-0.0707,-0.0706,-0.0705,-0.0693,-0.0699,0,0,0,0,0,-0.041,-0.042,-0.046,-0.0461,-0.0472,-0.0509,-0.052,-0.0539,-0.0566,-0.0576,-0.0605,-0.0633,-0.0663,-0.068,-0.0702,-0.0726,-0.0739,-0.0738,-0.0737,-0.0736,-0.0731,-0.076,-0.0761,-0.0745,-0.0745,-0.0745,0,0,-0.0391,-0.0415,-0.042,-0.0453,-0.0473,-0.0483,-0.0515,-0.0528,-0.0539,-0.058,-0.0597,-0.0629,-0.0666,-0.0692,-0.0705,-0.0709,-0.0748,-0.0736,-0.0735,-0.073,-0.0759,-0.0761,-0.0763,-0.0745,-0.0745,-0.0745,0,0,-0.0355,-0.038,-0.0377,-0.0399,-0.0429,-0.0456,-0.0459,-0.0497,-0.0517,-0.054,-0.0575,-0.061,-0.0648,-0.0684,-0.0707,-0.0712,-0.0739,-0.0721,-0.0715,-0.0743,-0.0745,-0.0747,-0.0765,-0.0769,-0.0725,-0.0725,-0.0725,0,-0.033,-0.0336,-0.0377,-0.0379,-0.0391,-0.0442,-0.0439,-0.0468,-0.0509,-0.0526,-0.0537,-0.061,-0.0644,-0.0692,-0.0699,-0.0712,-0.0727,-0.0719,-0.0743,-0.0745,-0.0747,-0.0765,-0.0769,-0.0725,-0.0725,-0.0725,-0.0725,0,-0.0295,-0.0302,-0.0298,-0.0324,-0.0342,-0.0347,-0.0395,-0.0415,-0.0447,-0.0483,-0.0529,-0.0583,-0.0625,-0.0652,-0.0681,-0.072,-0.0725,-0.0736,-0.0747,-0.0748,-0.0767,-0.0772,-0.0724,-0.0724,-0.0725,-0.0725,0,0,-0.0239,-0.0269,-0.0268,-0.0272,-0.0315,-0.0325,-0.0348,-0.0388,-0.0401,-0.0457,-0.0479,-0.0556,-0.0592,-0.0619,-0.067,-0.0709,-0.0744,-0.073,-0.0731,-0.0749,-0.0802,-0.0756,-0.0756,-0.0763,-0.0763,-0.0764,-0.081,0,-0.02,-0.0188,-0.0219,-0.0212,-0.0214,-0.0267,-0.0283,-0.0327,-0.0371,-0.0404,-0.0484,-0.0517,-0.0579,-0.06,-0.0653,-0.0718,-0.0755,-0.073,-0.0796,-0.0798,-0.0759,-0.0759,-0.0691,-0.0722,-0.0814,-0.0815,-0.0815,0,-0.0159,-0.0161,-0.0143,-0.0165,-0.0169,-0.0173,-0.0211,-0.0232,-0.0301,-0.0332,-0.0396,-0.0451,-0.0531,-0.0567,-0.0689,-0.0672,-0.0732,-0.0784,-0.0787,-0.0748,-0.0759,-0.0736,-0.0726,-0.0854,-0.0822,-0.0822,-0.0821,0,-0.0106,-0.011,-0.0094,-0.0101,-0.0131,-0.0134,-0.0152,-0.0209,-0.0217,-0.0283,-0.0287,-0.04,-0.0428,-0.054,-0.0655,-0.0673,-0.0769,-0.0804,-0.0821,-0.0818,-0.0773,-0.0765,-0.0893,-0.0874,-0.0874,-0.0873,-0.0873,0,-0.0063,-0.0051,-0.0065,-0.0058,-0.0036,-0.0079,-0.0068,-0.0104,-0.0138,-0.0122,-0.0241,-0.0238,-0.042,-0.0499,-0.0626,-0.0725,-0.0746,-0.0813,-0.0826,-0.0767,-0.0758,-0.0876,-0.0956,-0.0875,-0.0875,-0.0874,-0.0874,0,-0.0014,-0.0023,-0.0003,-0.0013,-0.001,0.0004,0.0004,0.0013,-0.003,-0.0009,-0.0018,-0.0114,-0.0205,-0.0381,-0.0541,-0.0653,-0.0827,-0.08,-0.0712,-0.0713,-0.0847,-0.0927,-0.1051,-0.1102,-0.0835,-0.0834,-0.0833,0,0.0009,0.0026,0.0044,0.0067,0.0066,0.0084,0.0103,0.0073,0.0094,0.0087,0.0115,0.0038,0.0021,-0.0209,-0.0418,-0.0618,-0.077,-0.0701,-0.0725,-0.0839,-0.094,-0.1005,-0.1045,-0.0671,-0.0668,-0.0667,-0.0666,0,0.0053,0.0064,0.0084,0.0138,0.017,0.0207,0.0236,0.0276,0.0267,0.031,0.037,0.0365,0.0168,0.0012,-0.0273,-0.0427,-0.0766,-0.067,-0.082,-0.0841,-0.089,-0.0948,-0.0659,-0.0651,-0.0652,-0.0653,-0.0654,-0.0655,0.0091,0.0122,0.0159,0.0212,0.0258,0.033,0.0387,0.0444,0.053,0.062,0.0597,0.064,0.0366,0.0005,-0.0216,-0.06,-0.0645,-0.0718,-0.0812,-0.0873,-0.0904,-0.057,-0.0553,-0.0554,-0.0555,-0.0556,-0.0556,0,0.0139,0.0176,0.0229,0.03,0.0375,0.0381,0.048,0.0559,0.0708,0.0798,0.0881,0.0789,0.0473,0.0081,-0.0421,-0.0692,-0.0824,-0.087,-0.0972,-0.1012,-0.0735,-0.0708,-0.0684,-0.0684,-0.0684,-0.0684,-0.0683,-0.0683,0.0167,0.0231,0.0262,0.0392,0.045,0.0567,0.0641,0.0773,0.0864,0.1014,0.1058,0.1051,0.0742,-0.0145,-0.0786,-0.0943,-0.1164,-0.1174,-0.133,-0.1165,-0.1159,-0.1154,-0.1149,-0.1217,-0.1218,-0.1544,-0.1547,-0.155]}],[{"header":{"parameterUnit":"m.s-1","parameterCategory":2,"la1":30.2991,"la2":30.254,"lo1":-89.0895,"lo2":-89.0444,"dy":0.0017,"dx":0.0017,"nx":28,"ny":28,"refTime":"2024-08-25T09:00:00:Z","depth":"2","parameterNumber":2,"parameterNumberName":"U-component_of_CURRENTS"},"data":[0,0,0,0,0,0,0,0,0,0,0,0,0,0,0,0,0,0,0,0,0,0,0,0,0,0,0,0,0,0,0,0,0,0,0,0,0,0,0,0,0,0,0,0,0,0,0,0,0,0,0,0,0,0,0,0,0,0,0.1644,0.1645,0,0.168,0.168,0.168,0.1683,0.1683,0.1683,0.1683,0.1693,0.1693,0.1694,0,0,0,0,0,0,0,0,0,0,0,0,0,0.1578,0.1579,0.1644,0.1645,0.1646,0.168,0.168,0.168,0.1683,0.1683,0.1683,0.1683,0.1693,0.1693,0.1694,0,0,0,0,0,0,0,0,0,0,0,0,0,0.1608,0.158,0.1644,0.1653,0.1654,0.168,0.168,0.168,0.1683,0.1683,0.1683,0.1682,0.1692,0.1693,0.1694,0.1703,0,0,0.1696,0.1696,0,0,0,0,0,0,0,0,0.1606,0.161,0.1651,0.1652,0.1654,0.1679,0.1661,0.1688,0.1683,0.167,0.1683,0.1682,0.1687,0.1688,0.1693,0.1704,0.1704,0.1696,0.1696,0.1697,0.1697,0,0,0,0,0,0,0,0.1604,0.1608,0.1656,0.1652,0.1653,0.1655,0.1658,0.1666,0.1677,0.1671,0.1672,0.1679,0.1688,0.1692,0.1693,0.1704,0.1696,0.1696,0.1697,0.1697,0.1755,0.1756,0,0,0,0,0,0,0.1605,0.1606,0.1655,0.1657,0.1631,0.1656,0.166,0.1669,0.1678,0.168,0.168,0.1679,0.1691,0.1692,0.1694,0.1734,0.1697,0.1697,0.1698,0.1754,0.1756,0.1757,0,0,0,0,0,0,0.1603,0.1609,0.1654,0.1634,0.164,0.1658,0.1668,0.167,0.1679,0.1685,0.1686,0.1686,0.1691,0.1693,0.1713,0.1733,0.1697,0.1698,0.1753,0.1755,0.1756,0.1796,0,0,0,0,0,0,0.1601,0.1608,0.1613,0.1634,0.1642,0.1674,0.1668,0.1671,0.1685,0.1685,0.1691,0.1692,0.1691,0.1712,0.1714,0.1733,0.1699,0.1751,0.1754,0.1756,0.1793,0.1798,0.1803,0,0,0,0,0,0.1598,0.1604,0.1613,0.1619,0.1649,0.1675,0.1678,0.1688,0.1685,0.1693,0.1703,0.1692,0.1727,0.1714,0.1715,0.1735,0.175,0.1753,0.1756,0.1791,0.1797,0.1803,0,0,0,0,0,0,0.1574,0.1606,0.1616,0.1631,0.1655,0.1676,0.1685,0.1692,0.1705,0.1705,0.1706,0.1708,0.1733,0.173,0.1716,0.1759,0.1737,0.174,0.1763,0.177,0.1775,0.1775,0.1699,0,0,0,0,0,0.1574,0.1589,0.162,0.1632,0.1647,0.1667,0.1678,0.1688,0.1704,0.171,0.1716,0.1727,0.1745,0.1754,0.1764,0.1787,0.1794,0.1802,0.1807,0.1811,0.1814,0.1843,0.1851,0.1765,0.1765,0.1765,0,0,0.1569,0.1587,0.1597,0.1629,0.1648,0.1676,0.1672,0.1694,0.1719,0.1709,0.1738,0.1743,0.1755,0.1783,0.1794,0.1784,0.1842,0.1815,0.1818,0.1818,0.1847,0.1855,0.1862,0.1767,0.1767,0.1767,0,0,0.157,0.1585,0.1604,0.1626,0.166,0.1679,0.1688,0.1716,0.173,0.1761,0.1763,0.1781,0.1803,0.1819,0.183,0.187,0.1867,0.1873,0.1902,0.1931,0.1939,0.1945,0.1975,0.1983,0.1878,0.1878,0.1878,0,0.1565,0.1592,0.1612,0.1636,0.1661,0.1683,0.1714,0.1735,0.1765,0.1786,0.1775,0.1823,0.1823,0.187,0.1881,0.1881,0.1898,0.1877,0.1938,0.1944,0.195,0.1979,0.1988,0.1881,0.188,0.188,0.188,0,0.1585,0.1609,0.1621,0.1666,0.1693,0.172,0.176,0.1788,0.1807,0.1828,0.1872,0.1878,0.1907,0.1911,0.1907,0.1954,0.1953,0.1939,0.192,0.1961,0.1989,0.1998,0.1884,0.1883,0.1882,0.1882,0,0,0.1577,0.1627,0.1633,0.166,0.1712,0.1738,0.179,0.1845,0.1878,0.1905,0.1948,0.1974,0.1973,0.1985,0.1984,0.2004,0.2054,0.1989,0.199,0.2016,0.2127,0.2116,0.2124,0.2053,0.2055,0.2056,0.2133,0,0.1593,0.1639,0.1664,0.1717,0.175,0.1791,0.1835,0.1885,0.1922,0.1965,0.1989,0.2019,0.2005,0.2014,0.2038,0.2048,0.2078,0.2035,0.2085,0.2087,0.207,0.2134,0.1953,0.2006,0.2142,0.2143,0.2144,0,0.1612,0.1643,0.1692,0.1752,0.1771,0.18,0.188,0.1922,0.1989,0.2014,0.2057,0.2071,0.2116,0.2083,0.2145,0.2121,0.2129,0.2133,0.2136,0.2116,0.2092,0.1985,0.2016,0.2158,0.2157,0.2156,0.2155,0,0.1605,0.1665,0.1704,0.1724,0.1793,0.1823,0.1862,0.1932,0.1975,0.204,0.2072,0.2128,0.2155,0.2182,0.2208,0.2177,0.2273,0.2229,0.2234,0.2233,0.2083,0.2067,0.2273,0.2273,0.2273,0.2273,0.2272,0,0.1615,0.1649,0.1698,0.1718,0.1769,0.1815,0.1871,0.1919,0.1987,0.2043,0.2087,0.2144,0.2179,0.2241,0.2245,0.2287,0.2313,0.2256,0.2259,0.2094,0.2079,0.2205,0.2196,0.2275,0.2275,0.2274,0.2274,0,0.1604,0.1637,0.1682,0.1743,0.1763,0.1795,0.1868,0.1905,0.1973,0.205,0.2072,0.217,0.2262,0.2312,0.2368,0.2337,0.2369,0.2375,0.2187,0.2166,0.2295,0.2287,0.2374,0.2375,0.2375,0.2375,0.2376,0,0.1604,0.1624,0.1682,0.1702,0.1725,0.1777,0.181,0.1887,0.193,0.2072,0.2105,0.2228,0.228,0.2378,0.2387,0.2416,0.2442,0.2241,0.2141,0.2315,0.2309,0.2301,0.2293,0.1958,0.1955,0.1953,0.1951,0,0.1602,0.1616,0.1641,0.1677,0.1707,0.1754,0.1806,0.1839,0.1942,0.1993,0.2087,0.2135,0.2265,0.2218,0.2279,0.2265,0.2219,0.219,0.243,0.1968,0.1931,0.1923,0.1927,0.1927,0.193,0.1931,0.1933,0.1934,0.1584,0.1593,0.1615,0.1645,0.1679,0.1711,0.1722,0.1772,0.1818,0.1872,0.1989,0.1996,0.2047,0.205,0.2024,0.2025,0.2158,0.2026,0.203,0.2038,0.1983,0.195,0.1939,0.1941,0.1943,0.1945,0.1947,0,0.1543,0.1559,0.1585,0.1604,0.1605,0.1657,0.1702,0.1678,0.1679,0.1756,0.1782,0.1673,0.1656,0.1744,0.1701,0.1702,0.1641,0.1639,0.153,0.1557,0.1579,0.1496,0.1326,0.1323,0.1321,0.1319,0,0,0.1518,0.1513,0.1524,0.1514,0.1536,0.1517,0.1526,0.1498,0.1521,0.1472,0.1467,0.1568,0.167,0.1463,0.1458,0.1385,0.1452,0.1337,0.1841,0.1739,0.1758,0.1818,0.1724,0,0,0,0,0]},{"header":{"parameterUnit":"m.s-1","parameterCategory":2,"la1":30.2991,"la2":30.254,"lo1":-89.0895,"lo2":-89.0444,"dy":0.0017,"dx":0.0017,"nx":28,"ny":28,"refTime":"2024-08-25T09:00:00:Z","depth":"2","parameterNumber":3,"parameterNumberName":"V-component_of_CURRENTS"},"data":[0,0,0,0,0,0,0,0,0,0,0,0,0,0,0,0,0,0,0,0,0,0,0,0,0,0,0,0,0,0,0,0,0,0,0,0,0,0,0,0,0,0,0,0,0,0,0,0,0,0,0,0,0,0,0,0,0,0,-0.0184,-0.0184,0,-0.0248,-0.0249,-0.025,-0.0314,-0.0314,-0.0315,-0.0315,-0.0418,-0.042,-0.0422,0,0,0,0,0,0,0,0,0,0,0,0,0,-0.017,-0.017,-0.0184,-0.0184,-0.0185,-0.0248,-0.0249,-0.0251,-0.0313,-0.0314,-0.0315,-0.0315,-0.0417,-0.042,-0.0423,0,0,0,0,0,0,0,0,0,0,0,0,0,-0.0202,-0.0169,-0.0184,-0.0221,-0.0225,-0.0248,-0.0249,-0.0251,-0.0313,-0.0314,-0.0315,-0.0316,-0.0416,-0.042,-0.0423,-0.0428,0,0,-0.0433,-0.0435,0,0,0,0,0,0,0,0,-0.02,-0.0203,-0.0215,-0.0219,-0.0223,-0.0271,-0.0282,-0.0311,-0.0313,-0.0283,-0.0315,-0.0316,-0.037,-0.0377,-0.0391,-0.0433,-0.0437,-0.0434,-0.0436,-0.0437,-0.0438,0,0,0,0,0,0,0,-0.0198,-0.0201,-0.0213,-0.0216,-0.022,-0.0254,-0.0259,-0.0288,-0.0324,-0.0286,-0.029,-0.0292,-0.0373,-0.0388,-0.0394,-0.0439,-0.0433,-0.0436,-0.0439,-0.044,-0.0503,-0.0503,0,0,0,0,0,0,-0.0179,-0.0198,-0.021,-0.0214,-0.021,-0.0253,-0.0259,-0.0257,-0.0323,-0.0333,-0.0291,-0.0294,-0.0382,-0.039,-0.0398,-0.0441,-0.0437,-0.044,-0.0442,-0.0504,-0.0503,-0.0503,0,0,0,0,0,0,-0.0179,-0.018,-0.0208,-0.0206,-0.0211,-0.0251,-0.025,-0.0258,-0.0282,-0.0326,-0.0337,-0.0306,-0.0383,-0.0393,-0.0419,-0.0444,-0.0442,-0.0445,-0.0504,-0.0504,-0.0503,-0.0506,0,0,0,0,0,0,-0.0178,-0.0179,-0.0177,-0.0204,-0.021,-0.0223,-0.0249,-0.0259,-0.028,-0.0285,-0.0343,-0.0353,-0.0384,-0.0413,-0.0422,-0.0449,-0.0447,-0.0505,-0.0504,-0.0503,-0.0506,-0.0506,-0.0505,0,0,0,0,0,-0.0177,-0.0161,-0.0176,-0.0178,-0.0204,-0.0222,-0.0229,-0.0263,-0.028,-0.0288,-0.0319,-0.0352,-0.0416,-0.0415,-0.0426,-0.0455,-0.0505,-0.0504,-0.0503,-0.0507,-0.0506,-0.0505,0,0,0,0,0,0,-0.0147,-0.0166,-0.0183,-0.0173,-0.0198,-0.0232,-0.0238,-0.0262,-0.0294,-0.0299,-0.0345,-0.0356,-0.0391,-0.0409,-0.0408,-0.0467,-0.0467,-0.0468,-0.0466,-0.0466,-0.0465,-0.0459,-0.045,0,0,0,0,0,-0.0139,-0.0138,-0.0164,-0.0158,-0.0168,-0.0205,-0.0218,-0.0241,-0.0269,-0.0285,-0.0322,-0.0358,-0.0394,-0.0417,-0.0445,-0.0475,-0.0485,-0.0499,-0.0498,-0.0498,-0.0497,-0.0516,-0.0517,-0.0501,-0.0501,-0.0501,0,0,-0.0128,-0.0135,-0.0138,-0.0153,-0.0175,-0.0182,-0.0216,-0.0231,-0.0248,-0.0289,-0.0321,-0.0356,-0.0397,-0.0434,-0.0452,-0.0456,-0.0507,-0.0497,-0.0496,-0.0496,-0.0515,-0.0517,-0.0518,-0.05,-0.05,-0.05,0,0,-0.0098,-0.011,-0.0103,-0.0119,-0.0143,-0.0165,-0.0168,-0.0204,-0.0237,-0.0264,-0.0302,-0.0343,-0.0392,-0.0434,-0.046,-0.0468,-0.0499,-0.0482,-0.0486,-0.0504,-0.0506,-0.0508,-0.0523,-0.0526,-0.0488,-0.0488,-0.0488,0,-0.0088,-0.0077,-0.0104,-0.0099,-0.0111,-0.0153,-0.0153,-0.0186,-0.0229,-0.0256,-0.027,-0.0351,-0.0394,-0.0449,-0.0461,-0.0472,-0.0481,-0.0491,-0.0505,-0.0507,-0.0509,-0.0524,-0.0527,-0.0488,-0.0488,-0.0488,-0.0488,0,-0.0054,-0.0051,-0.0045,-0.0057,-0.0073,-0.0077,-0.0121,-0.0149,-0.0189,-0.0226,-0.0287,-0.0342,-0.0389,-0.0421,-0.0452,-0.0496,-0.0497,-0.0499,-0.051,-0.0511,-0.0526,-0.053,-0.0488,-0.0488,-0.0488,-0.0488,0,0,-0.002,-0.0024,-0.0023,-0.0025,-0.0053,-0.006,-0.0092,-0.0136,-0.0151,-0.0219,-0.0246,-0.0341,-0.0374,-0.0404,-0.0454,-0.0491,-0.0526,-0.0506,-0.0507,-0.0527,-0.0564,-0.05,-0.0498,-0.0531,-0.0532,-0.0532,-0.0571,0,0.0008,0.0028,0.0015,0.0024,0.0024,-0.0023,-0.004,-0.0088,-0.0136,-0.0167,-0.0259,-0.0295,-0.0367,-0.0387,-0.0441,-0.0495,-0.0535,-0.0515,-0.0555,-0.0556,-0.0504,-0.05,-0.0485,-0.0512,-0.0574,-0.0575,-0.0575,0,0.0043,0.0049,0.0062,0.0058,0.0055,0.0054,0.0015,-0.0004,-0.007,-0.0108,-0.0176,-0.0227,-0.0312,-0.035,-0.0466,-0.0449,-0.0508,-0.0556,-0.0559,-0.0499,-0.0498,-0.052,-0.0516,-0.0581,-0.0581,-0.058,-0.058,0,0.0076,0.0084,0.0095,0.0091,0.0079,0.0069,0.006,0.0009,-0.0001,-0.0064,-0.0066,-0.0175,-0.0203,-0.0308,-0.0423,-0.0441,-0.0525,-0.0554,-0.0557,-0.0554,-0.0548,-0.0542,-0.0624,-0.0624,-0.0624,-0.0624,-0.0624,0,0.0112,0.012,0.0112,0.0119,0.0136,0.011,0.0121,0.009,0.0069,0.0086,-0.0024,-0.0017,-0.0191,-0.0262,-0.0386,-0.0471,-0.0495,-0.0553,-0.0556,-0.0546,-0.054,-0.0604,-0.0601,-0.0625,-0.0625,-0.0625,-0.0624,0,0.0145,0.0139,0.0158,0.0154,0.0154,0.0166,0.0177,0.0192,0.0161,0.0187,0.0176,0.0101,0.0022,-0.0145,-0.0292,-0.039,-0.0497,-0.0522,-0.0495,-0.0493,-0.0529,-0.0526,-0.0533,-0.0531,-0.0529,-0.0528,-0.0527,0,0.0163,0.0174,0.0193,0.021,0.0209,0.0224,0.0245,0.0232,0.0259,0.0276,0.0306,0.0245,0.0226,0.0032,-0.017,-0.0359,-0.0418,-0.0446,-0.0478,-0.0516,-0.0519,-0.0518,-0.0518,-0.0486,-0.0484,-0.0483,-0.0482,0,0.0192,0.02,0.022,0.0265,0.0291,0.0328,0.0361,0.0403,0.0416,0.0455,0.0524,0.052,0.0344,0.0173,-0.008,-0.0211,-0.0418,-0.0422,-0.0477,-0.0489,-0.0468,-0.0471,-0.0473,-0.0472,-0.0473,-0.0474,-0.0474,-0.0475,0.0217,0.0244,0.0279,0.0326,0.0366,0.0436,0.049,0.0541,0.0625,0.0685,0.0682,0.0674,0.0468,0.016,-0.0056,-0.0296,-0.03,-0.0398,-0.0404,-0.0411,-0.0376,-0.0351,-0.0327,-0.0327,-0.0328,-0.0328,-0.0328,0,0.0257,0.0288,0.0335,0.0404,0.0474,0.0476,0.0574,0.0631,0.0754,0.0787,0.0826,0.0658,0.0469,0.0225,-0.0111,-0.0295,-0.0357,-0.0355,-0.0409,-0.0416,-0.0423,-0.0393,-0.0347,-0.0348,-0.0348,-0.0349,0,0,0.0282,0.0342,0.0375,0.0492,0.0539,0.0638,0.0707,0.0783,0.0828,0.0876,0.0862,0.079,0.0535,0.0289,0.0022,-0.0164,-0.0252,-0.0202,-0.0165,-0.0204,-0.021,-0.0422,-0.0378,0,0,0,0,0]}],[{"header":{"parameterUnit":"m.s-1","parameterCategory":2,"la1":30.2991,"la2":30.254,"lo1":-89.0895,"lo2":-89.0444,"dy":0.0017,"dx":0.0017,"nx":28,"ny":28,"refTime":"2024-08-25T09:00:00:Z","depth":"4","parameterNumber":2,"parameterNumberName":"U-component_of_CURRENTS"},"data":[0,0,0,0,0,0,0,0,0,0,0,0,0,0,0,0,0,0,0,0,0,0,0,0,0,0,0,0,0,0,0,0,0,0,0,0,0,0,0,0,0,0,0,0,0,0,0,0,0,0,0,0,0,0,0,0,0,0,0.0899,0.0899,0,0.0927,0.0928,0.0928,0.0937,0.0937,0.0937,0.0937,0.1007,0.1008,0.101,0,0,0,0,0,0,0,0,0,0,0,0,0,0.0789,0.0791,0.0899,0.0899,0.09,0.0927,0.0928,0.0928,0.0937,0.0937,0.0937,0.0937,0.1006,0.1008,0.101,0,0,0,0,0,0,0,0,0,0,0,0,0,0.0828,0.0792,0.0899,0.0909,0.091,0.0927,0.0928,0.0928,0.0937,0.0937,0.0937,0.0937,0.1005,0.1008,0.1011,0.1028,0,0,0.1019,0.1021,0,0,0,0,0,0,0,0,0.0826,0.0832,0.0907,0.0908,0.0909,0.093,0.0915,0.0964,0.0937,0.0925,0.0937,0.0937,0.0986,0.099,0.0993,0.1031,0.1035,0.102,0.1021,0.1022,0.1023,0,0,0,0,0,0,0,0.0823,0.083,0.0909,0.0907,0.0909,0.089,0.0896,0.0924,0.0955,0.0926,0.0927,0.0933,0.0987,0.099,0.0995,0.1036,0.1019,0.1022,0.1024,0.1025,0.1133,0.1134,0,0,0,0,0,0,0.0827,0.0828,0.0908,0.091,0.0868,0.0893,0.0899,0.0922,0.0953,0.0958,0.0933,0.0933,0.0985,0.0991,0.0997,0.1064,0.1022,0.1025,0.1027,0.1132,0.1133,0.1134,0,0,0,0,0,0,0.0824,0.0834,0.0907,0.0869,0.0878,0.0895,0.092,0.0923,0.095,0.0958,0.0964,0.096,0.0985,0.0993,0.1038,0.1065,0.1026,0.1029,0.113,0.1132,0.1134,0.117,0,0,0,0,0,0,0.0821,0.0833,0.0862,0.087,0.088,0.0929,0.0921,0.0923,0.0952,0.0954,0.0984,0.0988,0.0986,0.1034,0.1041,0.1069,0.1031,0.1129,0.1131,0.1133,0.1168,0.1173,0.1178,0,0,0,0,0,0.0818,0.0843,0.0864,0.0873,0.0916,0.093,0.0934,0.0943,0.0954,0.0968,0.0989,0.0989,0.1052,0.1037,0.1045,0.1074,0.1128,0.113,0.1133,0.1165,0.1172,0.1178,0,0,0,0,0,0,0.081,0.0847,0.0869,0.0908,0.0928,0.0933,0.0948,0.0962,0.0989,0.0998,0.1007,0.1014,0.1063,0.1066,0.1049,0.1111,0.1089,0.1094,0.1111,0.1118,0.1123,0.1128,0.1033,0,0,0,0,0,0.0825,0.0857,0.0885,0.0918,0.0931,0.0949,0.0963,0.0973,0.0992,0.1005,0.1026,0.105,0.1077,0.1095,0.1116,0.1156,0.1165,0.1178,0.1184,0.1188,0.1198,0.1248,0.1258,0.1143,0.1143,0.1143,0,0,0.0827,0.0857,0.0873,0.0919,0.0936,0.0955,0.0957,0.0983,0.1006,0.101,0.1054,0.1075,0.1093,0.1131,0.1153,0.1139,0.1222,0.1191,0.1195,0.1203,0.1252,0.1263,0.1273,0.1145,0.1145,0.1144,0,0,0.0836,0.0881,0.0906,0.0928,0.0965,0.0974,0.099,0.1016,0.1037,0.1081,0.1089,0.1128,0.1169,0.1182,0.1195,0.1245,0.125,0.1255,0.1286,0.1333,0.1343,0.1352,0.136,0.137,0.1254,0.1254,0.1254,0,0.0839,0.0883,0.0913,0.0941,0.0956,0.0987,0.1006,0.1034,0.1072,0.1093,0.1102,0.1158,0.1192,0.1221,0.1254,0.1258,0.1276,0.1259,0.1341,0.135,0.1358,0.1365,0.1375,0.1256,0.1256,0.1256,0.1256,0,0.0861,0.0902,0.0916,0.0964,0.0983,0.1005,0.104,0.1072,0.1106,0.1133,0.118,0.1209,0.1239,0.1261,0.1288,0.1356,0.1344,0.1344,0.1324,0.1372,0.1375,0.1385,0.1259,0.1258,0.1258,0.1257,0,0,0.0843,0.0917,0.0922,0.0946,0.0997,0.1007,0.1052,0.1093,0.1118,0.1168,0.1216,0.1267,0.1285,0.1302,0.132,0.1377,0.147,0.1405,0.1407,0.1411,0.1559,0.1459,0.146,0.1494,0.1496,0.1498,0.153,0,0.0851,0.0894,0.0932,0.0968,0.0986,0.1027,0.107,0.1114,0.1142,0.1205,0.125,0.1312,0.1296,0.1335,0.1381,0.1467,0.1502,0.1461,0.1514,0.1515,0.142,0.147,0.1506,0.1537,0.1539,0.1541,0.1542,0,0.0855,0.0883,0.0916,0.0974,0.0988,0.1017,0.1056,0.1105,0.1192,0.1224,0.1257,0.1314,0.1405,0.1409,0.1497,0.1476,0.1528,0.1573,0.1575,0.1479,0.1434,0.1485,0.1559,0.1558,0.1557,0.1556,0.1555,0,0.0808,0.0869,0.0891,0.091,0.0983,0.1006,0.1053,0.111,0.1166,0.1254,0.1308,0.1362,0.1443,0.1498,0.1578,0.1571,0.1686,0.1673,0.1599,0.159,0.1653,0.1644,0.1742,0.1742,0.1742,0.1742,0.1742,0,0.0792,0.0814,0.0874,0.0889,0.0931,0.0989,0.1039,0.1083,0.1184,0.1248,0.1325,0.1362,0.1489,0.1561,0.1604,0.1614,0.1684,0.1614,0.1604,0.1664,0.1655,0.1659,0.1649,0.1743,0.1743,0.1743,0.1743,0,0.0744,0.079,0.0824,0.0891,0.0916,0.0949,0.1061,0.1086,0.1184,0.1269,0.1331,0.1435,0.1506,0.1572,0.1688,0.164,0.1676,0.166,0.1703,0.1693,0.1538,0.153,0.1581,0.1578,0.1575,0.1573,0.1571,0,0.0724,0.0736,0.0808,0.0833,0.0868,0.093,0.097,0.1078,0.1102,0.1268,0.1302,0.1443,0.1489,0.1529,0.1608,0.164,0.1631,0.1621,0.1598,0.1543,0.1528,0.1524,0.1519,0.1567,0.1566,0.1566,0.1565,0,0.0682,0.0717,0.0744,0.0789,0.0826,0.0873,0.0934,0.0964,0.1086,0.119,0.1259,0.1337,0.141,0.1469,0.1512,0.153,0.1617,0.1595,0.16,0.1578,0.1527,0.1514,0.1512,0.1556,0.1558,0.1558,0.1559,0,0.0652,0.0658,0.0699,0.0739,0.0784,0.0801,0.0846,0.0889,0.0963,0.1132,0.1144,0.1273,0.1382,0.1411,0.1441,0.1462,0.1451,0.1409,0.1424,0.1435,0.1376,0.129,0.1248,0,0,0,0,0,0.0619,0.0624,0.0645,0.0686,0.0726,0.0757,0.0812,0.0855,0.0964,0.0981,0.1073,0.1133,0.1219,0.1279,0.1277,0.138,0.145,0.1371,0.1407,0.1507,0.1518,0.1465,0,0,0,0,0,0,0.0597,0.0615,0.0622,0.0634,0.0653,0.0686,0.072,0.0787,0.0801,0.0923,0.0967,0.1074,0.116,0.1221,0.1263,0.1283,0.1284,0.1453,0.1451,0.1502,0.1511,0.1519,0.1468,0,0,0,0,0]},{"header":{"parameterUnit":"m.s-1","parameterCategory":2,"la1":30.2991,"la2":30.254,"lo1":-89.0895,"lo2":-89.0444,"dy":0.0017,"dx":0.0017,"nx":28,"ny":28,"refTime":"2024-08-25T09:00:00:Z","depth":"4","parameterNumber":3,"parameterNumberName":"V-component_of_CURRENTS"},"data":[0,0,0,0,0,0,0,0,0,0,0,0,0,0,0,0,0,0,0,0,0,0,0,0,0,0,0,0,0,0,0,0,0,0,0,0,0,0,0,0,0,0,0,0,0,0,0,0,0,0,0,0,0,0,0,0,0,0,0.0208,0.0208,0,0.0183,0.0183,0.0182,0.0177,0.0177,0.0178,0.0178,0.0167,0.0167,0.0166,0,0,0,0,0,0,0,0,0,0,0,0,0,0.0254,0.0253,0.0208,0.0208,0.0208,0.0183,0.0183,0.0182,0.0177,0.0177,0.0178,0.0178,0.0167,0.0167,0.0166,0,0,0,0,0,0,0,0,0,0,0,0,0,0.0232,0.0253,0.0208,0.0202,0.0201,0.0183,0.0183,0.0182,0.0177,0.0177,0.0178,0.0178,0.0167,0.0167,0.0166,0.0156,0,0,0.0164,0.0163,0,0,0,0,0,0,0,0,0.0233,0.023,0.0203,0.0203,0.0202,0.0184,0.0195,0.0174,0.0177,0.0186,0.0178,0.0178,0.0174,0.0172,0.0167,0.0155,0.0155,0.0164,0.0163,0.0163,0.0163,0,0,0,0,0,0,0,0.0235,0.0232,0.0198,0.0203,0.0202,0.0201,0.0198,0.0191,0.0179,0.0186,0.0185,0.0182,0.0173,0.0168,0.0167,0.0155,0.0164,0.0163,0.0163,0.0162,0.0144,0.0144,0,0,0,0,0,0,0.0237,0.0233,0.0199,0.0198,0.0218,0.02,0.0197,0.0189,0.0179,0.0177,0.0182,0.0182,0.0169,0.0167,0.0166,0.0188,0.0163,0.0162,0.0162,0.0144,0.0144,0.0144,0,0,0,0,0,0,0.0238,0.0234,0.02,0.0215,0.0211,0.0199,0.019,0.0188,0.0186,0.0176,0.0175,0.0181,0.0169,0.0167,0.0161,0.0186,0.0162,0.0161,0.0144,0.0144,0.0144,0.0209,0,0,0,0,0,0,0.024,0.0235,0.0232,0.0215,0.021,0.0196,0.019,0.0188,0.0183,0.0183,0.0175,0.0174,0.0169,0.0162,0.016,0.0185,0.0161,0.0144,0.0144,0.0144,0.0207,0.0211,0.0214,0,0,0,0,0,0.0241,0.0236,0.0232,0.0228,0.0205,0.0196,0.0193,0.0186,0.0183,0.0184,0.0175,0.0174,0.016,0.0161,0.0159,0.0184,0.0144,0.0144,0.0144,0.0205,0.021,0.0214,0,0,0,0,0,0,0.0248,0.0234,0.0229,0.0218,0.0211,0.0195,0.0194,0.0187,0.018,0.0182,0.0171,0.017,0.0175,0.0161,0.0162,0.0175,0.0153,0.0152,0.02,0.0204,0.0208,0.0233,0.016,0,0,0,0,0,0.0249,0.0245,0.023,0.0223,0.022,0.0207,0.0203,0.0198,0.0189,0.0186,0.0178,0.0171,0.0171,0.0173,0.0165,0.017,0.0145,0.0182,0.0186,0.019,0.0206,0.018,0.0183,0.0143,0.0143,0.0143,0,0,0.0251,0.0241,0.024,0.0225,0.0219,0.0222,0.0206,0.0202,0.0213,0.0186,0.0195,0.0182,0.0173,0.0183,0.0184,0.0177,0.0184,0.019,0.0193,0.0208,0.018,0.0184,0.0188,0.0143,0.0143,0.0143,0,0,0.0255,0.0244,0.0245,0.0242,0.0234,0.0231,0.0232,0.0219,0.0224,0.0223,0.0214,0.0214,0.0203,0.0212,0.0213,0.0229,0.0202,0.0224,0.0272,0.0246,0.025,0.0253,0.0213,0.0212,0.023,0.023,0.023,0,0.0258,0.0257,0.0245,0.0246,0.0253,0.0239,0.0251,0.0251,0.024,0.0254,0.0233,0.0236,0.0222,0.0257,0.0263,0.0243,0.0214,0.0261,0.0253,0.0256,0.0258,0.0216,0.0214,0.0233,0.0233,0.0232,0.0232,0,0.0263,0.0268,0.0269,0.0273,0.0278,0.0285,0.0289,0.0299,0.0298,0.03,0.0322,0.0301,0.0307,0.0303,0.029,0.031,0.0279,0.026,0.0248,0.0266,0.022,0.0217,0.0237,0.0236,0.0235,0.0235,0,0,0.0259,0.0274,0.0274,0.0296,0.0298,0.0309,0.0334,0.0361,0.0388,0.0379,0.0408,0.0412,0.0401,0.0401,0.0386,0.0371,0.0349,0.0327,0.0324,0.0299,0.0279,0.0235,0.0226,0.0327,0.0327,0.0327,0.0237,0,0.0271,0.0294,0.0296,0.0334,0.0354,0.0365,0.0393,0.0417,0.0427,0.0445,0.0447,0.0453,0.0439,0.0435,0.0426,0.0364,0.0345,0.0374,0.0255,0.0252,0.022,0.0223,0.0327,0.0234,0.0233,0.0233,0.0232,0,0.0275,0.0298,0.0335,0.0388,0.0398,0.0422,0.048,0.0497,0.0524,0.0529,0.0547,0.0526,0.0524,0.0487,0.0425,0.0442,0.0373,0.0322,0.0316,0.0256,0.0203,0.0213,0.0226,0.0226,0.0227,0.0227,0.0228,0,0.0289,0.0329,0.0369,0.0382,0.0429,0.0466,0.0495,0.0531,0.0558,0.0574,0.0578,0.0578,0.0553,0.0495,0.0399,0.0402,0.0304,0.0286,0.0189,0.0183,0.0223,0.0221,0.0238,0.0239,0.0239,0.0239,0.0239,0,0.03,0.0335,0.0386,0.0408,0.0472,0.0495,0.0561,0.0581,0.0613,0.0635,0.062,0.0618,0.0549,0.0486,0.0407,0.0288,0.0307,0.0201,0.0163,0.0248,0.025,0.0219,0.0218,0.0236,0.0236,0.0237,0.0238,0,0.0301,0.0328,0.0383,0.0451,0.0476,0.0522,0.0598,0.0636,0.0655,0.0676,0.0673,0.0637,0.0543,0.0467,0.0344,0.0282,0.0177,0.0129,0.022,0.0187,0.007,0.0073,0.001,0.0008,0.0006,0.0005,0.0003,0,0.0304,0.033,0.0408,0.0443,0.0478,0.0553,0.0597,0.0649,0.0676,0.068,0.0673,0.0602,0.0562,0.0368,0.0283,0.013,0.0109,0.0053,0.0079,0.0081,0.0049,0.0055,0.0061,0.0001,0.0,-0.0,-0.0001,0,0.0315,0.0339,0.0385,0.0452,0.051,0.0573,0.0635,0.0658,0.0693,0.0716,0.0658,0.0571,0.0461,0.0337,0.0217,0.0113,0.0093,0.0033,0.0037,0.0061,0.0068,0.004,0.0048,-0.0007,-0.0006,-0.0006,-0.0005,0,0.0323,0.0351,0.0402,0.0462,0.0523,0.0562,0.061,0.0635,0.0664,0.0663,0.0638,0.054,0.0494,0.0324,0.0217,0.0109,0.0079,0.0047,0.0049,0.0055,0.01,0.0118,0.0029,0,0,0,0,0,0.0329,0.0355,0.0407,0.0467,0.0521,0.0553,0.0612,0.0651,0.0686,0.0638,0.0642,0.0537,0.0371,0.0307,0.0186,0.0176,0.006,0.003,0.0024,-0.0043,-0.0036,0.0007,0,0,0,0,0,0,0.0333,0.0378,0.0401,0.0452,0.0484,0.0542,0.0576,0.0603,0.0583,0.0599,0.0513,0.0492,0.0334,0.0432,0.0177,0.0147,0.0122,-0.0035,-0.0038,-0.0047,-0.0041,-0.0035,0.0011,0,0,0,0,0]}]]